Погода Софийский Прииск

Погода Софийский Прииск : погода сейчас, прогноз погоды и архив. Всё, что Вы хотите узнать о погоде Софийский Прииск!

Поиск расширенной информации на нашем сайте:

Полезная информация: Сервис ремонт компьютеров сидорово улучшит качество работы ПК.

Другие новости

Новости СМИ2

Главная страница сайта

Новости сайта

02.10.2013

Напоминаем, что на нашем новом сайте вы можете получить высокодетализированные прогнозы погоды по пунктам России, СНГ и мира (включающие важные для авиации метеовеличины, такие как направление и скорость ветра, видимость, явления погоды, количество и форма облачности, нижняя и верхняя граница облачности), а также ознакомиться с разнообразными материалами по авиационной метеорологии и подборкой полезных ссылок на эту тему.

Сайт Метеоцентр.Азия посвящён разработке технологий оптимизации авиаметеорологического обслуживания, включая проектирование и перспективное создание нескольких автоматизированных авиаметеорологических систем:
- система выпуска высокодетальных прогностических карт явлений погоды для нижнего воздушного пространства по России и ближнему зарубежью;
- система верификации прогнозов TAF (выпускаемых синоптиками официальных АМСГ РФ и ближнего зарубежья) и AUTOTAF (выпускаемых сайтом Метеоцентр.Азия) - выявление ошибок, онлайн-сопоставление с фактической погодой METAR, автоматическое внесение коррективов в прогнозы при резком отклонении фактической погоды от прогноза, подсчёт оправдываемости прогнозов по элементам и в целом;
- система обработки, анализа и отображения авиаметеорологической информации для применения провайдерами метеорологической информации.

Рекомендуем: Молодежный Кредит на жилье http://www.help-me.kiev.ua.

Погода Софийский Прииск - сегодня

Время (UTC), дата Ветер
(°,м/с) 
Видим.   Явления Облачность Т
(°С)
Тd
(°С)
f(%) Тe
(°С)
Pmin
(гПа)
dP
(гПа)
Po
(мм)
O2
(г/м3)
Тmin Tmax R s Состояние
почвы
15 23.05.17 тихо ()   20000 м    10/10 1000 м кучево-дожд. 
[Cb cap]
+3.3 -0.8 74 +3  1005.9  -0.1  676  269           
18 23.05.17 020 (С) 20000 м    10/10 1000 м кучево-дожд. 
[Cb cap]
+1.2 -0.8 86 +2  1004.8  -1.6             
21 23.05.17 тихо ()   20000 м    10/10 1000 м кучево-дожд. 
[Cb cap]
+3.1 +0 80 +3  1005.5  1.2  675  269  +0.5        влажная 
00 24.05.17 100 (В) 20000 м    10/10 1000 м кучево-дожд. 
[Cb cap]
+9.2 +0.3 54 +7  1003.7  0.5  676  263           
03 24.05.17 090 (В) 6-11{13}  20000 м    10/10 1000 м кучево-дожд. 
[Cb cap]
+9.4 -1.4 47 +8  1004.7  0.9  677  263           
06 24.05.17 120 (ЮВ) 5-10{13}  20000 м    9/8 1000 м кучево-дожд., средняя, верхняя 
[Cb cap|As trans|Ci fib]
+11.5 -2.6 37 +10  1005.1  1.1  677  262           
09 24.05.17 080 (В) 20000 м    8/6 1000 м верхняя 
[Cu hum|Ci]
+12.6 -3.4 33 +12  1005.3  0.5  678  261    +11.7       
12 24.05.17 290 (З) 20000 м    4/4 1000 м кучево-дожд. 
[Cb cap]
+3.5 +0.7 82 +4  1012  2.9  680  270           
18 24.05.17 090 (В) 20000 м    ясно 
-2.2 -3 94 -3  1015.7  0.4  681  277           
21 24.05.17 тихо ()   20000 м    ясно 
+1.1 -0.9 86 +1  1014.9  0.6  681  273  -3.7        влажная 
00 25.05.17 260 (З) 20000 м    3/3 1000 м 
[Cu med, cong]
+13.1 -1.7 36 +14  1009.8  -0.5  681  262           
03 25.05.17 230 (ЮЗ) 20000 м    6/6 1000 м 
[Cu med, cong]
+16.6 -5.2 22 +17  1007.4  -1  680  259           
06 25.05.17 310 (СЗ) 20000 м    6/5 1000 м кучево-дожд., средняя 
[Cb cap|Ac lent]
+16.8 -8.4 17 +18  1005.6  -1.5  679  258           
09 25.05.17 250 (З) 20000 м    6/4 1000 м кучево-дожд., средняя, верхняя 
[Cb cap|Ac lent|Ci fib]
+16.6 -7.2 19 +18  1005.2  -0.5  679  258    +18.8       
12 25.05.17 160 (Ю) 20000 м    1/1 1000 м 
[Cu hum]
+6.3 -1.4 58 +6  1010.3  1.2  680  268           
15 25.05.17 080 (В) 20000 м    ясно 
+0.2 -2.5 82 -1  1013.5  0.7  680  274           
18 25.05.17 070 (В) 20000 м    1/0 верхняя 
[Ci sp]
-1.7 -3.7 86 -3  1014.7  0.3  680  276           
21 25.05.17 тихо ()   20000 м    10/0 верхняя 
[Ci fib]
+3.2 -1.6 71 +3  1013  0.4  681  271  -2.9        влажная 
00 26.05.17 260 (З) 20000 м    9/9 1000 м 
[Sc]
+13.5 -1.2 36 +14  1008.4  -0.6  680  261           
03 26.05.17 250 (З) 20000 м    10/9 1000 м 
[Sc]
+14.9 -0.6 35 +16  1007.7  -0.2  680  260           
06 26.05.17 250 (З) 20000 м    8/8 1000 м кучево-дожд. 
[Cb cap]
+16.3 -1.3 30 +17  1006.2  -0.9  679  258           
09 26.05.17 260 (З) 20000 м    8/8 1000 м 
[Sc]
+16.1 +0.2 34 +17  1005.9  -0.3  679  258    +17.7       
12 26.05.17 160 (Ю) 20000 м    1/0 средняя 
[Ac lent]
+8.4 +2.6 67 +8  1009.5  0.7  680  265           
15 26.05.17 080 (В) 20000 м    ясно 
+2.2 +0.5 88 +3  1012.5  0.4  680  271           
18 26.05.17 090 (В) 20000 м    3/0 средняя 
[Ac trans]
+0.4 -0.8 92 1013.7  0.4  680  274           
Время (UTC), дата Ветер
(°,м/с) 
Видим.   Явления Облачность Т
(°С)
Тd
(°С)
f(%) Тe
(°С)
Pmin
(гПа)
dP
(гПа)
Po
(мм)
O2
(г/м3)
Тmin Tmax R s Состояние
почвы

Для получения пояснительной информации подведите курсор к названию столбца.

ПОГОДА Софийский Прииск - архив

Всё, что Вы хотите узнать о погоде Софийский Прииск - удобно и подробно!

Выберите нужную дату (начиная с 1 января 2015* года) и нажмите кнопку "Найти".
Будут отображены архивные сводки погоды по пункту Софийский Прииск, начиная с указанной даты.


Отображать данные в формате CSV (для использования в таблицах Excel)


Внимание! Наш архив погоды предназначен исключительно для личного некоммерческого использования в познавательных целях. Если Вам необходимы официальные справки о состоянии погоды (для производственных, юридических, коммерческих и т.п. целей), обращайтесь в органы Росгидромета.

*Примечание: данная дата относится к архиву по метеостанциям СССР (Россия, СНГ, Балтия).
Архив по метеостанциям Зарубежной Европы и Азии (кроме Китая) хранится 10 дней, по другим регионам земного шара (Китай, Африка, Америка, Австралия, Океания) - 1 день.

Софийский Прииск - район местоположения метеостанции


Название, широта, долгота, высота метеостанции:
Софийский Прииск 52.3°ш. 134°д. 902 м над ур. моря [Российская Федерация]

Дополнительная информация

В oтличие oт бoльшинства пoгoдных сайтoв мы публикуем пoдрoбную метеoинфoрмацию в детальнoм прoфессиoнальнoм фoрмате.

Характеристики температуры и влажнoсти вoздуха измеряются на высoте 2 м в тени вдали oт зданий и деревьев.
Скoрoсть ветра измеряется на высoте 10 м (на урoвне рoста челoвека скoрoсть ветра ниже в 1.5-2 раза). Если метеoстанция нахoдится в гoрoде или в лесу, тo скoрoсть ветра занижена на 2-4 м/с пo сравнению с oткрытым местoм. Скoрoсть ветра над акватoриями крупных рек и oзёр, а также на вершинах хoлмoв на 2-5 м/с выше, чем в oбычных услoвиях.
Атмoсфернoе давление в разных тoчках местнoсти мoжет значительнo oтличаться oт давления на метеoстанции, в зависимoсти oт услoвий рельефа (при пoдъёме на 10 м давление пoнижается примернo на 1 мм рт.ст.).